This is the latest recevied weather packets stored in our database for station/object DK4DAX-2. If no packets are shown the sender has not sent any weather packets the latest 10 day(s).
| Time | Temp. | Humidity | Pressure | Rain* | Wind** | Luminosity | Snow |
|---|---|---|---|---|---|---|---|
| 1788147003 | 18.89° C | 80% | 1008.3 hPa | 0 mm | - | - | - |
| 1788146104 | 18.89° C | 77% | 1008.4 hPa | 0 mm | - | - | - |
| 1788145203 | 19.44° C | 74% | 1008.7 hPa | 0 mm | - | - | - |
| 1788144303 | 20° C | 71% | 1008.3 hPa | 0 mm | - | - | - |
| 1788143404 | 20° C | 67% | 1008.3 hPa | 0 mm | - | - | - |
| 1788142503 | 20° C | 63% | 1008.3 hPa | 0 mm | - | - | - |
| 1788141603 | 20.56° C | 62% | 1008 hPa | 0 mm | - | - | - |
| 1788140704 | 20.56° C | 62% | 1007.9 hPa | 0 mm | - | - | - |
| 1788139804 | 20.56° C | 60% | 1008.1 hPa | 0 mm | - | - | - |
| 1788138903 | 20.56° C | 60% | 1008.1 hPa | 0 mm | - | - | - |
| 1788138003 | 20.56° C | 60% | 1007.8 hPa | 0 mm | - | - | - |
| 1788137104 | 19.44° C | 64% | 1008.3 hPa | 0 mm | - | - | - |
| 1788136203 | 19.44° C | 65% | 1008.2 hPa | 0 mm | - | - | - |
| 1788135303 | 19.44° C | 65% | 1008.7 hPa | 0 mm | - | - | - |
| 1788134404 | 19.44° C | 66% | 1008.4 hPa | 0 mm | - | - | - |
| 1788133503 | 19.44° C | 65% | 1008.4 hPa | 0 mm | - | - | - |
| 1788132603 | 19.44° C | 65% | 1008.6 hPa | 0 mm | - | - | - |
| 1788131704 | 19.44° C | 64% | 1008.6 hPa | 0 mm | - | - | - |
| 1788130804 | 19.44° C | 65% | 1008.4 hPa | 0 mm | - | - | - |
| 1788129903 | 19.44° C | 64% | 1008.4 hPa | 0 mm | - | - | - |
| 1788129003 | 19.44° C | 63% | 1008.7 hPa | 0 mm | - | - | - |
| 1788128104 | 20° C | 62% | 1008.7 hPa | 0 mm | - | - | - |
| 1788127204 | 20° C | 62% | 1009.1 hPa | 0 mm | - | - | - |
| 1788126304 | 20° C | 60% | 1009 hPa | 0 mm | - | - | - |
| 1788125403 | 20.56° C | 59% | 1009.1 hPa | 0 mm | - | - | - |
* Rain latest hour (hover to see other rain measurements)
** Current wind speed in m/s (hover to see current wind gust speed)